{"data":{"norad_id":54756,"epoch":"2026-09-19T11:00:13.664736Z","epoch_age_seconds":104410,"freshness":"FRESH","line1":"1 54756U 22174B   26262.45849149 -.00000027  00000+0  00000+0 0  9993","line2":"2 54756   0.0397 346.5004 0005498 186.0607 187.4492  5.00118963 70166","mean_motion":5.00118963,"eccentricity":0.0005498,"inclination_deg":0.0397,"raan_deg":346.5004,"arg_perigee_deg":186.0607,"mean_anomaly_deg":187.4492,"bstar":0,"rev_number":7016,"period_min":287.93149361145,"perigee_km":8057.8822516815,"apogee_km":8073.7648306925,"semimajor_km":14443.960541187,"source":"CELESTRAK","updated_at":"2026-09-20T09:00:35.688644Z"}}